| time (UTC) | temp F | wind direction | speed MPH | gust MPH | rain 1hr in | rain 24hr in | rain mn in | humidity % | barometer mb |
| 20260901141015 | 66 | 0.0 | 0.0 | 0.00 | 0.13 | 0.13 | 10 | 1015.0 | |
| 20260901140535 | 66 | 0.0 | 0.0 | 0.00 | 0.13 | 0.13 | 9 | 1014.9 | |
| 20260901140015 | 66 | 0.0 | 0.0 | 0.00 | 0.13 | 0.13 | 10 | 1014.9 | |
| 20260901135515 | 66 | 0.0 | 0.0 | 0.01 | 0.13 | 0.13 | 10 | 1014.9 | |
| 20260901135015 | 66 | 0.0 | 0.0 | 0.01 | 0.13 | 0.13 | 10 | 1014.9 | |
| 20260901134515 | 66 | 0.0 | 0.0 | 0.02 | 0.13 | 0.13 | 10 | 1015.0 | |
| 20260901134015 | 66 | 0.0 | 1.0 | 0.02 | 0.13 | 0.13 | 10 | 1015.0 | |
| 20260901133557 | 66 | 179 | 0.0 | 1.0 | 0.03 | 0.13 | 0.13 | 10 | 1015.1 |
| 20260901133017 | 66 | 0.0 | 0.0 | 0.04 | 0.13 | 0.13 | 10 | 1015.2 | |
| 20260901132517 | 66 | 0.0 | 0.0 | 0.05 | 0.13 | 0.13 | 10 | 1015.2 | |
| 20260901132037 | 66 | 0.0 | 0.0 | 0.06 | 0.13 | 0.13 | 10 | 1015.3 | |
| 20260901131516 | 66 | 0.0 | 0.0 | 0.08 | 0.13 | 0.13 | 10 | 1015.3 | |
| 20260901131017 | 66 | 0.0 | 0.0 | 0.09 | 0.13 | 0.13 | 11 | 1015.4 | |
| 20260901130517 | 66 | 0.0 | 0.0 | 0.09 | 0.13 | 0.13 | 11 | 1015.4 | |
| 20260901130017 | 65 | 0.0 | 0.0 | 0.09 | 0.13 | 0.13 | 11 | 1015.4 | |
| 20260901125516 | 65 | 0.0 | 0.0 | 0.09 | 0.12 | 0.12 | 11 | 1015.4 | |
| 20260901125017 | 65 | 0.0 | 0.0 | 0.09 | 0.12 | 0.12 | 11 | 1015.2 | |
| 20260901124516 | 65 | 0.0 | 0.0 | 0.09 | 0.11 | 0.11 | 11 | 1015.2 | |
| 20260901124017 | 65 | 0.0 | 0.0 | 0.09 | 0.11 | 0.11 | 12 | 1015.2 | |
| 20260901123516 | 65 | 0.0 | 0.0 | 0.08 | 0.10 | 0.10 | 12 | 1015.2 | |
| 20260901123016 | 65 | 0.0 | 0.0 | 0.07 | 0.09 | 0.09 | 12 | 1015.4 | |
| 20260901122517 | 65 | 0.0 | 0.0 | 0.06 | 0.08 | 0.08 | 12 | 1015.4 | |
| 20260901122017 | 65 | 0.0 | 0.0 | 0.05 | 0.07 | 0.07 | 12 | 1015.5 | |
| 20260901121517 | 65 | 0.0 | 0.0 | 0.03 | 0.05 | 0.05 | 13 | 1015.5 | |
| 20260901121016 | 65 | 0.0 | 0.0 | 0.02 | 0.04 | 0.04 | 13 | 1015.4 | |
| 20260901120516 | 65 | 0.0 | 0.0 | 0.02 | 0.04 | 0.04 | 13 | 1015.3 | |
| 20260901120057 | 65 | 0.0 | 0.0 | 0.02 | 0.04 | 0.04 | 13 | 1015.3 | |
| 20260901115516 | 65 | 0.0 | 0.0 | 0.01 | 0.03 | 0.03 | 13 | 1015.3 | |
| 20260901115016 | 65 | 0.0 | 0.0 | 0.01 | 0.03 | 0.03 | 14 | 1015.3 | |
| 20260901114516 | 65 | 0.0 | 0.0 | 0.00 | 0.02 | 0.02 | 14 | 1015.3 | |
| 20260901114016 | 65 | 0.0 | 0.0 | 0.01 | 0.02 | 0.02 | 15 | 1015.4 | |
| 20260901113536 | 65 | 0.0 | 1.0 | 0.01 | 0.02 | 0.02 | 15 | 1015.4 | |
| 20260901113016 | 65 | 179 | 0.0 | 1.0 | 0.01 | 0.02 | 0.02 | 16 | 1015.5 |
| 20260901112516 | 65 | 0.0 | 0.0 | 0.01 | 0.02 | 0.02 | 16 | 1015.4 | |
| 20260901112016 | 65 | 0.0 | 0.0 | 0.01 | 0.02 | 0.02 | 16 | 1015.3 | |
| 20260901111516 | 65 | 0.0 | 0.0 | 0.01 | 0.02 | 0.02 | 16 | 1015.3 | |
| 20260901111016 | 65 | 0.0 | 0.0 | 0.01 | 0.02 | 0.02 | 18 | 1015.2 | |
| 20260901110536 | 65 | 0.0 | 0.0 | 0.01 | 0.02 | 0.02 | 19 | 1015.2 | |
| 20260901110016 | 65 | 0.0 | 0.0 | 0.01 | 0.02 | 0.02 | 20 | 1015.1 | |
| 20260901105516 | 65 | 0.0 | 0.0 | 0.02 | 0.02 | 0.02 | 20 | 1015.1 | |
| 20260901105016 | 65 | 0.0 | 0.0 | 0.02 | 0.02 | 0.02 | 20 | 1015.0 | |
| 20260901104556 | 65 | 0.0 | 0.0 | 0.02 | 0.02 | 0.02 | 21 | 1015.0 | |
| 20260901104016 | 65 | 0.0 | 0.0 | 0.01 | 0.01 | 0.01 | 22 | 1015.0 | |
| 20260901103516 | 65 | 0.0 | 0.0 | 0.01 | 0.01 | 0.01 | 22 | 1014.9 | |
| 20260901103036 | 65 | 0.0 | 0.0 | 0.01 | 0.01 | 0.01 | 23 | 1014.7 | |
| 20260901102536 | 65 | 0.0 | 0.0 | 0.01 | 0.01 | 0.01 | 25 | 1014.6 | |
| 20260901102016 | 65 | 0.0 | 0.0 | 0.01 | 0.01 | 0.01 | 26 | 1014.6 | |
| 20260901101516 | 65 | 0.0 | 0.0 | 0.01 | 0.01 | 0.01 | 27 | 1014.6 | |
| 20260901101016 | 65 | 0.0 | 0.0 | 0.01 | 0.01 | 0.01 | 29 | 1014.6 | |
| 20260901100516 | 65 | 0.0 | 1.0 | 0.01 | 0.01 | 0.01 | 30 | 1014.7 | |
| 20260901100016 | 65 | 179 | 0.0 | 1.0 | 0.01 | 0.01 | 0.01 | 31 | 1014.6 |
| 20260901095516 | 65 | 179 | 0.0 | 1.0 | 0.00 | 0.00 | 0.00 | 33 | 1014.6 |
| 20260901095016 | 66 | 0.0 | 0.0 | 0.00 | 0.00 | 0.00 | 34 | 1014.6 | |
| 20260901094516 | 65 | 0.0 | 1.0 | 0.00 | 0.00 | 0.00 | 35 | 1014.6 | |
| 20260901094016 | 65 | 179 | 0.0 | 1.0 | 0.00 | 0.00 | 0.00 | 37 | 1014.6 |
| 20260901093516 | 65 | 179 | 0.0 | 1.0 | 0.00 | 0.00 | 0.00 | 36 | 1014.5 |
| 20260901093016 | 65 | 0.0 | 1.0 | 0.00 | 0.00 | 0.00 | 36 | 1014.5 | |
| 20260901092516 | 65 | 179 | 0.0 | 1.0 | 0.00 | 0.00 | 0.00 | 34 | 1014.5 |
| 20260901092016 | 65 | 0.0 | 0.0 | 0.00 | 0.00 | 0.00 | 34 | 1014.5 | |
| 20260901091536 | 65 | 0.0 | 0.0 | 0.00 | 0.00 | 0.00 | 35 | 1014.4 | |
| 20260901091016 | 65 | 0.0 | 1.0 | 0.00 | 0.00 | 0.00 | 36 | 1014.4 | |
| 20260901090516 | 65 | 179 | 0.0 | 1.0 | 0.00 | 0.00 | 0.00 | 36 | 1014.4 |
| 20260901090016 | 65 | 0.0 | 0.0 | 0.00 | 0.00 | 0.00 | 35 | 1014.4 | |
| 20260901085536 | 65 | 0.0 | 0.0 | 0.00 | 0.00 | 0.00 | 35 | 1014.5 | |
| 20260901085016 | 65 | 0.0 | 0.0 | 0.00 | 0.00 | 0.00 | 37 | 1014.4 | |
| 20260901084516 | 65 | 0.0 | 0.0 | 0.00 | 0.00 | 0.00 | 39 | 1014.4 | |
| 20260901084016 | 65 | 0.0 | 0.0 | 0.00 | 0.00 | 0.00 | 40 | 1014.5 | |
| 20260901083516 | 65 | 0.0 | 0.0 | 0.00 | 0.00 | 0.00 | 40 | 1014.5 | |
| 20260901083056 | 65 | 0.0 | 0.0 | 0.00 | 0.00 | 0.00 | 40 | 1014.4 | |
| 20260901082516 | 66 | 0.0 | 0.0 | 0.00 | 0.00 | 0.00 | 40 | 1014.5 | |
| 20260901082036 | 66 | 0.0 | 0.0 | 0.00 | 0.00 | 0.00 | 41 | 1014.5 | |
| 20260901081536 | 66 | 0.0 | 0.0 | 0.00 | 0.00 | 0.00 | 42 | 1014.5 | |
| 20260901081016 | 66 | 0.0 | 0.0 | 0.00 | 0.00 | 0.00 | 41 | 1014.5 | |
| 20260901080516 | 66 | 0.0 | 0.0 | 0.00 | 0.00 | 0.00 | 41 | 1014.4 | |
| 20260901080016 | 66 | 0.0 | 0.0 | 0.00 | 0.00 | 0.00 | 41 | 1014.4 | |
| 20260901075516 | 66 | 0.0 | 0.0 | 0.00 | 0.00 | 0.00 | 41 | 1014.5 | |
| 20260901075016 | 66 | 0.0 | 0.0 | 0.00 | 0.00 | 0.00 | 41 | 1014.5 | |
| 20260901074516 | 66 | 0.0 | 0.0 | 0.00 | 0.00 | 0.00 | 42 | 1014.6 | |
| 20260901074016 | 66 | 0.0 | 0.0 | 0.00 | 0.00 | 0.00 | 42 | 1014.7 | |
| 20260901073516 | 66 | 0.0 | 0.0 | 0.00 | 0.00 | 0.00 | 43 | 1014.7 | |
| 20260901073016 | 66 | 0.0 | 0.0 | 0.00 | 0.00 | 0.00 | 43 | 1014.8 | |
| 20260901072516 | 66 | 0.0 | 0.0 | 0.00 | 0.00 | 0.00 | 40 | 1014.9 | |
| 20260901072016 | 66 | 0.0 | 0.0 | 0.00 | 0.00 | 0.00 | 38 | 1014.9 | |
| 20260901071516 | 66 | 0.0 | 0.0 | 0.00 | 0.00 | 0.00 | 38 | 1014.9 | |
| 20260901071016 | 66 | 0.0 | 0.0 | 0.00 | 0.00 | 0.00 | 40 | 1014.9 | |
| 20260901070516 | 66 | 0.0 | 0.0 | 0.00 | 0.00 | 0.00 | 41 | 1015.0 | |
| 20260901070016 | 66 | 0.0 | 0.0 | 0.00 | 0.00 | 0.00 | 40 | 1015.1 | |
| 20260901065516 | 66 | 0.0 | 0.0 | 0.00 | 0.00 | 0.00 | 40 | 1015.1 | |
| 20260901065016 | 66 | 0.0 | 0.0 | 0.00 | 0.00 | 0.00 | 40 | 1015.2 | |
| 20260901064515 | 66 | 0.0 | 0.0 | 0.00 | 0.00 | 0.00 | 40 | 1015.2 | |
| 20260901064016 | 66 | 0.0 | 0.0 | 0.00 | 0.00 | 0.00 | 40 | 1015.1 | |
| 20260901063515 | 66 | 0.0 | 0.0 | 0.00 | 0.00 | 0.00 | 39 | 1015.1 | |
| 20260901063015 | 66 | 0.0 | 0.0 | 0.00 | 0.00 | 0.00 | 39 | 1015.0 | |
| 20260901062515 | 66 | 0.0 | 0.0 | 0.00 | 0.00 | 0.00 | 38 | 1015.0 | |
| 20260901062016 | 66 | 0.0 | 0.0 | 0.00 | 0.00 | 0.00 | 37 | 1015.1 | |
| 20260901061516 | 66 | 0.0 | 0.0 | 0.00 | 0.00 | 0.00 | 37 | 1015.1 | |
| 20260901061016 | 66 | 0.0 | 0.0 | 0.00 | 0.00 | 0.00 | 37 | 1015.2 | |
| 20260901060515 | 66 | 0.0 | 0.0 | 0.00 | 0.00 | 0.00 | 39 | 1015.2 | |
| 20260901060036 | 65 | 0.0 | 0.0 | 0.00 | 0.00 | 0.00 | 38 | 1015.3 | |
| 20260901055516 | 65 | 0.0 | 0.0 | 0.00 | 0.00 | 0.00 | 38 | 1015.2 | |
| 20260901055015 | 65 | 0.0 | 0.0 | 0.00 | 0.00 | 0.00 | 38 | 1015.2 | |
| 20260901054515 | 65 | 0.0 | 0.0 | 0.00 | 0.00 | 0.00 | 39 | 1015.2 | |
| 20260901054015 | 65 | 0.0 | 0.0 | 0.00 | 0.00 | 0.00 | 39 | 1015.2 | |
| 20260901053516 | 65 | 0.0 | 0.0 | 0.00 | 0.00 | 0.00 | 38 | 1015.2 | |
| 20260901053055 | 65 | 0.0 | 0.0 | 0.00 | 0.00 | 0.00 | 39 | 1015.2 | |
| 20260901052516 | 65 | 0.0 | 0.0 | 0.00 | 0.00 | 0.00 | 40 | 1015.2 | |
| 20260901052016 | 65 | 0.0 | 0.0 | 0.00 | 0.00 | 0.00 | 40 | 1015.3 | |
| 20260901051515 | 65 | 0.0 | 0.0 | 0.00 | 0.00 | 0.00 | 40 | 1015.2 | |
| 20260901051015 | 65 | 0.0 | 0.0 | 0.00 | 0.00 | 0.00 | 39 | 1015.2 | |
| 20260901050515 | 65 | 0.0 | 0.0 | 0.00 | 0.00 | 0.00 | 39 | 1015.2 | |
| 20260901050015 | 65 | 0.0 | 0.0 | 0.00 | 0.00 | 0.00 | 40 | 1015.1 | |
| 20260901045515 | 65 | 0.0 | 0.0 | 0.00 | 0.00 | 0.00 | 41 | 1015.2 | |
| 20260901045035 | 65 | 0.0 | 0.0 | 0.00 | 0.00 | 0.00 | 42 | 1015.2 | |
| 20260901044515 | 65 | 0.0 | 0.0 | 0.00 | 0.00 | 0.00 | 42 | 1015.2 | |
| 20260901044015 | 65 | 0.0 | 0.0 | 0.00 | 0.00 | 0.00 | 42 | 1015.1 | |
| 20260901043515 | 65 | 0.0 | 0.0 | 0.00 | 0.00 | 0.00 | 41 | 1015.1 | |
| 20260901043015 | 65 | 0.0 | 0.0 | 0.00 | 0.00 | 0.00 | 41 | 1015.1 | |
| 20260901042515 | 65 | 0.0 | 0.0 | 0.00 | 0.00 | 0.00 | 41 | 1015.2 | |
| 20260901042015 | 65 | 0.0 | 0.0 | 0.00 | 0.00 | 0.00 | 42 | 1015.2 | |
| 20260901041515 | 65 | 0.0 | 0.0 | 0.00 | 0.00 | 0.00 | 44 | 1015.2 | |
| 20260901041016 | 65 | 0.0 | 0.0 | 0.00 | 0.00 | 0.00 | 44 | 1015.1 | |
| 20260901040515 | 65 | 0.0 | 0.0 | 0.00 | 0.00 | 0.00 | 44 | 1015.1 | |
| 20260901040015 | 65 | 0.0 | 0.0 | 0.00 | 0.00 | 0.00 | 45 | 1015.1 | |
| 20260901035515 | 65 | 0.0 | 0.0 | 0.00 | 0.00 | 0.00 | 45 | 1015.1 | |
| 20260901035015 | 65 | 0.0 | 0.0 | 0.00 | 0.00 | 0.00 | 47 | 1015.2 | |
| 20260901034515 | 65 | 0.0 | 0.0 | 0.00 | 0.00 | 0.00 | 47 | 1015.2 | |
| 20260901034016 | 66 | 0.0 | 0.0 | 0.00 | 0.00 | 0.00 | 46 | 1015.2 | |
| 20260901033515 | 66 | 0.0 | 0.0 | 0.00 | 0.00 | 0.00 | 47 | 1015.3 | |
| 20260901033015 | 66 | 0.0 | 0.0 | 0.00 | 0.00 | 0.00 | 48 | 1015.2 | |
| 20260901032515 | 66 | 0.0 | 0.0 | 0.00 | 0.00 | 0.00 | 48 | 1015.3 | |
| 20260901032015 | 66 | 0.0 | 0.0 | 0.00 | 0.00 | 0.00 | 48 | 1015.3 | |
| 20260901031515 | 66 | 0.0 | 0.0 | 0.00 | 0.00 | 0.00 | 48 | 1015.3 | |
| 20260901031015 | 66 | 0.0 | 0.0 | 0.00 | 0.00 | 0.00 | 49 | 1015.4 | |
| 20260901030515 | 66 | 0.0 | 0.0 | 0.00 | 0.00 | 0.00 | 49 | 1015.3 | |
| 20260901030015 | 66 | 0.0 | 0.0 | 0.00 | 0.00 | 0.00 | 50 | 1015.2 | |
| 20260901025515 | 66 | 0.0 | 0.0 | 0.00 | 0.00 | 0.00 | 50 | 1015.2 | |
| 20260901025015 | 66 | 0.0 | 0.0 | 0.00 | 0.00 | 0.00 | 51 | 1015.2 | |
| 20260901024535 | 66 | 0.0 | 0.0 | 0.00 | 0.00 | 0.00 | 51 | 1015.1 | |
| 20260901024015 | 66 | 0.0 | 0.0 | 0.00 | 0.00 | 0.00 | 51 | 1015.1 | |
| 20260901023535 | 66 | 0.0 | 0.0 | 0.00 | 0.00 | 0.00 | 52 | 1015.2 | |
| 20260901023015 | 66 | 0.0 | 0.0 | 0.00 | 0.00 | 0.00 | 53 | 1015.2 | |
| 20260901022535 | 66 | 0.0 | 0.0 | 0.00 | 0.00 | 0.00 | 54 | 1015.2 | |
| 20260901022015 | 66 | 0.0 | 0.0 | 0.00 | 0.00 | 0.00 | 54 | 1015.1 | |
| 20260901021515 | 66 | 0.0 | 0.0 | 0.00 | 0.00 | 0.00 | 53 | 1015.0 | |
| 20260901021015 | 66 | 0.0 | 0.0 | 0.00 | 0.00 | 0.00 | 53 | 1015.0 | |
| 20260901020515 | 66 | 0.0 | 0.0 | 0.00 | 0.00 | 0.00 | 54 | 1015.0 | |
| 20260901020015 | 66 | 0.0 | 0.0 | 0.00 | 0.00 | 0.00 | 54 | 1015.1 | |
| 20260901015515 | 66 | 0.0 | 0.0 | 0.00 | 0.00 | 0.00 | 54 | 1015.1 | |
| 20260901015015 | 66 | 0.0 | 0.0 | 0.00 | 0.00 | 0.00 | 56 | 1015.1 | |
| 20260901014515 | 66 | 0.0 | 0.0 | 0.00 | 0.00 | 0.00 | 57 | 1015.1 | |
| 20260901014015 | 66 | 0.0 | 0.0 | 0.00 | 0.00 | 0.00 | 57 | 1015.2 | |
| 20260901013515 | 66 | 0.0 | 0.0 | 0.00 | 0.00 | 0.00 | 58 | 1015.2 | |
| 20260901013015 | 66 | 0.0 | 0.0 | 0.00 | 0.00 | 0.00 | 58 | 1015.3 | |
| 20260901012515 | 66 | 0.0 | 0.0 | 0.00 | 0.00 | 0.00 | 58 | 1015.3 | |
| 20260901012015 | 66 | 0.0 | 0.0 | 0.00 | 0.00 | 0.00 | 60 | 1015.4 | |
| 20260901011515 | 66 | 0.0 | 0.0 | 0.00 | 0.00 | 0.00 | 60 | 1015.5 | |
| 20260901011034 | 66 | 0.0 | 0.0 | 0.00 | 0.00 | 0.00 | 61 | 1015.4 | |
| 20260901010517 | 66 | 0.0 | 0.0 | 0.00 | 0.00 | 0.00 | 62 | 1015.4 | |
| 20260901010017 | 67 | 0.0 | 0.0 | 0.00 | 0.00 | 0.00 | 61 | 1015.4 | |
| 20260901005517 | 67 | 0.0 | 0.0 | 0.00 | 0.00 | 0.00 | 61 | 1015.4 | |
| 20260901005036 | 67 | 0.0 | 0.0 | 0.00 | 0.00 | 0.00 | 62 | 1015.3 | |
| 20260901004517 | 67 | 0.0 | 0.0 | 0.00 | 0.00 | 0.00 | 62 | 1015.3 | |
| 20260901004017 | 67 | 0.0 | 0.0 | 0.00 | 0.00 | 0.00 | 62 | 1015.3 | |
| 20260901003517 | 67 | 0.0 | 0.0 | 0.00 | 0.00 | 0.00 | 63 | 1015.3 | |
| 20260901003017 | 67 | 0.0 | 0.0 | 0.00 | 0.00 | 0.00 | 64 | 1015.2 | |
| 20260901002517 | 67 | 0.0 | 0.0 | 0.00 | 0.00 | 0.00 | 64 | 1015.1 | |
| 20260901002057 | 67 | 0.0 | 0.0 | 0.00 | 0.00 | 0.00 | 65 | 1015.0 | |
| 20260901001516 | 68 | 0.0 | 0.0 | 0.00 | 0.00 | 0.00 | 65 | 1015.0 | |
| 20260901001016 | 68 | 0.0 | 0.0 | 0.00 | 0.00 | 0.00 | 66 | 1015.0 | |
| 20260901000517 | 68 | 0.0 | 0.0 | 0.00 | 0.00 | 0.00 | 67 | 1015.0 | |
| 20260901000017 | 68 | 0.0 | 0.0 | 0.00 | 0.00 | 0.00 | 68 | 1015.0 | |
| 20260831235516 | 68 | 0.0 | 0.0 | 0.00 | 0.00 | 0.00 | 68 | 1015.0 | |
| 20260831235016 | 68 | 0.0 | 0.0 | 0.00 | 0.00 | 0.00 | 67 | 1015.0 | |
| 20260831234516 | 69 | 0.0 | 0.0 | 0.00 | 0.00 | 0.00 | 67 | 1015.0 | |
| 20260831234016 | 69 | 0.0 | 0.0 | 0.00 | 0.00 | 0.00 | 67 | 1015.1 | |
| 20260831233516 | 69 | 0.0 | 0.0 | 0.00 | 0.00 | 0.00 | 68 | 1015.2 | |
| 20260831233016 | 69 | 0.0 | 0.0 | 0.00 | 0.00 | 0.00 | 69 | 1015.3 | |
| 20260831232516 | 69 | 0.0 | 0.0 | 0.00 | 0.00 | 0.00 | 71 | 1015.3 | |
| 20260831232016 | 69 | 0.0 | 0.0 | 0.00 | 0.00 | 0.00 | 72 | 1015.3 | |
| 20260831231516 | 70 | 0.0 | 0.0 | 0.00 | 0.00 | 0.00 | 72 | 1015.3 | |
| 20260831231016 | 70 | 0.0 | 0.0 | 0.00 | 0.00 | 0.00 | 73 | 1015.4 | |
| 20260831230516 | 70 | 0.0 | 0.0 | 0.00 | 0.00 | 0.00 | 73 | 1015.4 | |
| 20260831230017 | 71 | 0.0 | 0.0 | 0.00 | 0.00 | 0.00 | 74 | 1015.5 | |
| 20260831225516 | 71 | 0.0 | 0.0 | 0.00 | 0.00 | 0.00 | 74 | 1015.5 | |
| 20260831225016 | 71 | 0.0 | 0.0 | 0.00 | 0.00 | 0.00 | 74 | 1015.5 | |
| 20260831224516 | 72 | 0.0 | 0.0 | 0.00 | 0.00 | 0.00 | 74 | 1015.6 | |
| 20260831224016 | 72 | 0.0 | 0.0 | 0.00 | 0.00 | 0.00 | 74 | 1015.6 | |
| 20260831223516 | 72 | 0.0 | 0.0 | 0.00 | 0.00 | 0.00 | 74 | 1015.6 | |
| 20260831223016 | 72 | 0.0 | 0.0 | 0.00 | 0.00 | 0.00 | 74 | 1015.6 | |
| 20260831222516 | 73 | 0.0 | 1.0 | 0.00 | 0.00 | 0.00 | 73 | 1015.6 | |
| 20260831222036 | 73 | 179 | 0.0 | 1.0 | 0.00 | 0.00 | 0.00 | 73 | 1015.6 |
| 20260831221536 | 73 | 180 | 0.0 | 1.0 | 0.00 | 0.00 | 0.00 | 73 | 1015.6 |
| 20260831221036 | 73 | 190 | 0.0 | 1.0 | 0.00 | 0.00 | 0.00 | 73 | 1015.5 |
| 20260831220516 | 73 | 0.0 | 1.0 | 0.00 | 0.00 | 0.00 | 73 | 1015.5 | |
| 20260831220016 | 73 | 190 | 0.0 | 1.0 | 0.00 | 0.00 | 0.00 | 73 | 1015.4 |
| 20260831215516 | 73 | 165 | 0.0 | 2.0 | 0.00 | 0.00 | 0.00 | 72 | 1015.4 |
| 20260831215016 | 73 | 162 | 0.0 | 2.0 | 0.00 | 0.00 | 0.00 | 73 | 1015.4 |
| 20260831214536 | 74 | 0.0 | 0.0 | 0.00 | 0.00 | 0.00 | 73 | 1015.4 | |
| 20260831214016 | 74 | 0.0 | 0.0 | 0.00 | 0.00 | 0.00 | 72 | 1015.5 | |
| 20260831213516 | 74 | 0.0 | 1.0 | 0.00 | 0.00 | 0.00 | 72 | 1015.4 | |
| 20260831213016 | 74 | 130 | 0.0 | 2.0 | 0.00 | 0.00 | 0.00 | 71 | 1015.4 |
| 20260831212556 | 74 | 133 | 0.0 | 2.0 | 0.00 | 0.00 | 0.00 | 72 | 1015.5 |
| 20260831212016 | 74 | 137 | 0.0 | 3.0 | 0.00 | 0.00 | 0.00 | 72 | 1015.5 |
| 20260831211516 | 74 | 218 | 1.0 | 3.0 | 0.00 | 0.00 | 0.00 | 70 | 1015.6 |
| 20260831211056 | 74 | 252 | 1.0 | 3.0 | 0.00 | 0.00 | 0.00 | 70 | 1015.7 |
| 20260831210516 | 74 | 217 | 0.0 | 2.0 | 0.00 | 0.00 | 0.00 | 71 | 1015.7 |
| 20260831210016 | 74 | 213 | 0.0 | 2.0 | 0.00 | 0.00 | 0.00 | 71 | 1015.7 |
| 20260831205516 | 74 | 0.0 | 0.0 | 0.00 | 0.00 | 0.00 | 71 | 1015.7 | |
| 20260831205016 | 74 | 0.0 | 0.0 | 0.00 | 0.00 | 0.00 | 69 | 1015.7 | |
| 20260831204516 | 74 | 0.0 | 0.0 | 0.00 | 0.00 | 0.00 | 68 | 1015.8 | |
| 20260831204016 | 75 | 0.0 | 2.0 | 0.00 | 0.00 | 0.00 | 67 | 1015.8 | |
| 20260831203516 | 75 | 136 | 0.0 | 2.0 | 0.00 | 0.00 | 0.00 | 67 | 1015.8 |
| 20260831203016 | 76 | 154 | 0.0 | 2.0 | 0.00 | 0.00 | 0.00 | 66 | 1015.8 |
| 20260831202516 | 76 | 234 | 0.0 | 1.0 | 0.00 | 0.00 | 0.00 | 65 | 1015.7 |
| 20260831202016 | 76 | 234 | 0.0 | 3.0 | 0.00 | 0.00 | 0.00 | 63 | 1015.7 |
| 20260831201556 | 76 | 218 | 1.0 | 3.0 | 0.00 | 0.00 | 0.00 | 62 | 1015.8 |
| 20260831201016 | 76 | 183 | 1.0 | 3.0 | 0.00 | 0.00 | 0.00 | 63 | 1015.7 |
| 20260831200536 | 76 | 184 | 0.0 | 3.0 | 0.00 | 0.00 | 0.00 | 62 | 1015.7 |
| 20260831200016 | 76 | 195 | 0.0 | 1.0 | 0.00 | 0.00 | 0.00 | 63 | 1015.7 |
| 20260831195516 | 76 | 0.0 | 3.0 | 0.00 | 0.00 | 0.00 | 62 | 1015.8 | |
| 20260831195016 | 76 | 179 | 0.0 | 3.0 | 0.00 | 0.00 | 0.00 | 62 | 1015.9 |
| 20260831194556 | 76 | 169 | 0.0 | 3.0 | 0.00 | 0.00 | 0.00 | 61 | 1015.9 |
| 20260831194016 | 75 | 222 | 0.0 | 5.0 | 0.00 | 0.00 | 0.00 | 62 | 1015.9 |
| 20260831193516 | 75 | 230 | 1.0 | 6.0 | 0.00 | 0.00 | 0.00 | 62 | 1016.0 |
| 20260831193036 | 75 | 174 | 0.0 | 6.0 | 0.00 | 0.00 | 0.00 | 61 | 1016.1 |
| 20260831192516 | 75 | 0.0 | 0.0 | 0.00 | 0.00 | 0.00 | 61 | 1016.1 | |
| 20260831192016 | 75 | 0.0 | 0.0 | 0.00 | 0.00 | 0.00 | 63 | 1016.1 | |
| 20260831191536 | 75 | 0.0 | 3.0 | 0.00 | 0.00 | 0.00 | 60 | 1016.2 | |
| 20260831191016 | 75 | 200 | 0.0 | 3.0 | 0.00 | 0.00 | 0.00 | 61 | 1016.3 |
| 20260831190516 | 75 | 154 | 0.0 | 2.0 | 0.00 | 0.00 | 0.00 | 63 | 1016.4 |
| 20260831190016 | 75 | 301 | 0.0 | 1.0 | 0.00 | 0.00 | 0.00 | 62 | 1016.4 |
| 20260831185516 | 75 | 0.0 | 1.0 | 0.00 | 0.00 | 0.00 | 62 | 1016.5 | |
| 20260831185016 | 75 | 332 | 0.0 | 1.0 | 0.00 | 0.00 | 0.00 | 62 | 1016.4 |
| 20260831184536 | 76 | 0.0 | 0.0 | 0.00 | 0.00 | 0.00 | 62 | 1016.4 | |
| 20260831184016 | 76 | 0.0 | 0.0 | 0.00 | 0.00 | 0.00 | 59 | 1016.4 | |
| 20260831183516 | 76 | 0.0 | 0.0 | 0.00 | 0.00 | 0.00 | 60 | 1016.5 | |
| 20260831183016 | 76 | 0.0 | 4.0 | 0.00 | 0.00 | 0.00 | 59 | 1016.5 | |
| 20260831182516 | 76 | 182 | 0.0 | 5.0 | 0.00 | 0.00 | 0.00 | 59 | 1016.6 |
| 20260831182016 | 76 | 212 | 1.0 | 5.0 | 0.00 | 0.00 | 0.00 | 58 | 1016.7 |
| 20260831181536 | 76 | 0.0 | 0.0 | 0.00 | 0.00 | 0.00 | 57 | 1016.8 | |
| 20260831181016 | 76 | 0.0 | 0.0 | 0.00 | 0.00 | 0.00 | 57 | 1016.8 | |
| 20260831180516 | 76 | 0.0 | 3.0 | 0.00 | 0.00 | 0.00 | 58 | 1016.9 | |
| 20260831180016 | 76 | 198 | 0.0 | 3.0 | 0.00 | 0.00 | 0.00 | 58 | 1016.9 |
| 20260831175516 | 76 | 0.0 | 2.0 | 0.00 | 0.00 | 0.00 | 58 | 1016.8 | |
| 20260831175016 | 76 | 297 | 0.0 | 2.0 | 0.00 | 0.00 | 0.00 | 57 | 1016.8 |
| 20260831174536 | 76 | 0.0 | 0.0 | 0.00 | 0.00 | 0.00 | 57 | 1016.8 | |
| 20260831174035 | 76 | 0.0 | 0.0 | 0.00 | 0.00 | 0.00 | 57 | 1016.9 | |
| 20260831173515 | 75 | 0.0 | 0.0 | 0.00 | 0.00 | 0.00 | 55 | 1016.9 | |
| 20260831173036 | 75 | 0.0 | 2.0 | 0.00 | 0.00 | 0.00 | 54 | 1017.0 | |
| 20260831172516 | 75 | 23 | 0.0 | 2.0 | 0.00 | 0.00 | 0.00 | 53 | 1017.2 |
| 20260831172016 | 76 | 0.0 | 0.0 | 0.00 | 0.00 | 0.00 | 56 | 1017.3 | |
| 20260831171515 | 76 | 0.0 | 0.0 | 0.00 | 0.00 | 0.00 | 57 | 1017.3 | |
| 20260831171015 | 75 | 0.0 | 0.0 | 0.00 | 0.00 | 0.00 | 57 | 1017.4 | |
| 20260831170515 | 75 | 0.0 | 1.0 | 0.00 | 0.00 | 0.00 | 56 | 1017.4 | |
| 20260831170016 | 75 | 168 | 0.0 | 1.0 | 0.00 | 0.00 | 0.00 | 58 | 1017.4 |
| 20260831165516 | 75 | 169 | 0.0 | 3.0 | 0.00 | 0.00 | 0.00 | 56 | 1017.5 |
| 20260831165015 | 75 | 321 | 0.0 | 3.0 | 0.00 | 0.00 | 0.00 | 56 | 1017.6 |
| 20260831164536 | 74 | 0.0 | 1.0 | 0.00 | 0.00 | 0.00 | 55 | 1017.6 | |
| 20260831164015 | 74 | 249 | 0.0 | 1.0 | 0.00 | 0.00 | 0.00 | 58 | 1017.7 |
| 20260831163515 | 74 | 0.0 | 0.0 | 0.00 | 0.00 | 0.00 | 57 | 1017.7 | |
| 20260831163015 | 74 | 0.0 | 0.0 | 0.00 | 0.00 | 0.00 | 55 | 1017.7 | |
| 20260831162516 | 74 | 0.0 | 0.0 | 0.00 | 0.00 | 0.00 | 55 | 1017.8 | |
| 20260831162015 | 75 | 0.0 | 2.0 | 0.00 | 0.00 | 0.00 | 59 | 1017.8 | |
| 20260831161516 | 74 | 288 | 0.0 | 4.0 | 0.00 | 0.00 | 0.00 | 57 | 1017.9 |
| 20260831161015 | 74 | 284 | 1.0 | 4.0 | 0.00 | 0.00 | 0.00 | 58 | 1018.0 |
| 20260831160515 | 74 | 0.0 | 0.0 | 0.00 | 0.00 | 0.00 | 59 | 1017.9 | |
| 20260831160035 | 74 | 0.0 | 0.0 | 0.00 | 0.00 | 0.00 | 58 | 1017.9 | |
| 20260831155515 | 74 | 0.0 | 0.0 | 0.00 | 0.00 | 0.00 | 58 | 1017.9 | |
| 20260831155016 | 73 | 0.0 | 0.0 | 0.00 | 0.00 | 0.00 | 57 | 1018.0 | |
| 20260831154535 | 72 | 0.0 | 0.0 | 0.00 | 0.00 | 0.00 | 61 | 1018.0 | |
| 20260831154015 | 72 | 0.0 | 0.0 | 0.00 | 0.00 | 0.00 | 61 | 1018.0 | |
| 20260831153515 | 72 | 0.0 | 0.0 | 0.00 | 0.00 | 0.00 | 60 | 1018.0 | |
| 20260831153035 | 71 | 0.0 | 0.0 | 0.00 | 0.00 | 0.00 | 61 | 1017.9 | |
| 20260831152515 | 71 | 0.0 | 0.0 | 0.00 | 0.00 | 0.00 | 60 | 1018.0 | |
| 20260831152015 | 70 | 0.0 | 2.0 | 0.00 | 0.00 | 0.00 | 62 | 1018.1 | |
| 20260831151515 | 70 | 128 | 0.0 | 3.0 | 0.00 | 0.00 | 0.00 | 63 | 1018.0 |
| 20260831151015 | 70 | 237 | 0.0 | 4.0 | 0.00 | 0.00 | 0.00 | 65 | 1018.1 |
| 20260831150515 | 70 | 158 | 0.0 | 4.0 | 0.00 | 0.00 | 0.00 | 65 | 1018.1 |
| 20260831150015 | 70 | 0.0 | 0.0 | 0.00 | 0.00 | 0.00 | 68 | 1018.1 | |
| 20260831145515 | 69 | 0.0 | 2.0 | 0.00 | 0.00 | 0.00 | 65 | 1018.1 | |
| 20260831145055 | 69 | 101 | 0.0 | 2.0 | 0.00 | 0.00 | 0.00 | 69 | 1018.1 |
| 20260831144535 | 69 | 0.0 | 2.0 | 0.00 | 0.00 | 0.00 | 67 | 1018.2 | |
| 20260831144015 | 69 | 321 | 0.0 | 2.0 | 0.00 | 0.00 | 0.00 | 65 | 1018.3 |
| 20260831143515 | 68 | 196 | 0.0 | 1.0 | 0.00 | 0.00 | 0.00 | 67 | 1018.4 |
| 20260831143015 | 68 | 0.0 | 0.0 | 0.00 | 0.00 | 0.00 | 65 | 1018.4 | |
| 20260831142515 | 68 | 0.0 | 0.0 | 0.00 | 0.00 | 0.00 | 70 | 1018.3 | |
| 20260831142015 | 67 | 0.0 | 0.0 | 0.00 | 0.00 | 0.00 | 70 | 1018.3 | |
| 20260831141515 | 67 | 0.0 | 0.0 | 0.00 | 0.00 | 0.00 | 71 | 1018.4 | |
| 20260831141055 | 66 | 0.0 | 0.0 | 0.00 | 0.00 | 0.00 | 72 | 1018.4 |